SOICAL (CONE)

Satellite information

Favourite Embed

Satellite Type and Status

PAYLOADIN ORBIT

Key statistics

Satellite SOICAL (CONE) at a glance.

Uptime

20307

Days in orbit

Revolutions

≈ 14.3

Per day

Orbit

LEO

Low Earth Orbit

Inclination

70.0

Latest

Satellite identification and parameters

Extended collection of information and parameters for SOICAL (CONE).

Object identification

Identified? True

Debris? False

Object name: SOICAL (CONE)

International designator: 1969-082K

Object number (NORAD): 4132

Object ID (CCSDS): 4132

Country: UNITED STATES OF AMERICA (US)

Current information (Y/N): Y

RCS size: MEDIUM

Orbital parameters

Period: 100.655 minutes

Inclination: 69.992 deg

SMA: 7167.787 km

Apoapsis: 796.457 km

Periapsis: 782.847 km

RAAN: 118.0024 deg

Eccentricy: 0.0009494

Argument of periapsis: 317.628 deg

Mean anomaly: 42.4109 deg

Mean motion: 14.30622853 rev/day

Mean motion (dot): 0.00002405 rev/day2

B* drag term: 0.00094151 1/REarth

Two-line elements (TLE)

Creation date: May 4, 2025, 5:21 p.m.

Reference frame: TEME

Reference center: EARTH

Epoch: May 4, 2025, 9:24 a.m. UTC

TLE line 0: 0 SOICAL (CONE)

TLE line 1: 1 04132U 69082K 25124.39173299 .00002405 00000-0 94151-3 0 9996

TLE line 2: 2 04132 69.9920 118.0024 0009494 317.6280 42.4109 14.30622853862411

Live tracking on map

Real-time ground track for satellite SOICAL (CONE).

In-orbit conjunctions

A list of the most updated potential collisions computed for object SOICAL (CONE).

Target Orbit TCA Probability of collision Miss distance Type
DELTA 1 DEB SSO 2024-12-27 08:25:34 0.0001727944 914.0 (m) DEBRIS
CZ-6A DEB LEO 2024-12-12 17:29:13 0.000136465 203.0 (m) DEBRIS
DMSP 5D-2 F13 DEB SSO 2024-07-26 03:13:58 0.0002736332 465.0 (m) DEBRIS
THOR BURNER 2 R/B SSO 2024-07-17 07:12:37 0.0002243237 784.0 (m) ROCKET BODY

Associated space launch

Poppy was the follow-on ELINT system, which succeeded the Grab ELINT satellite system.

SOICAL (CONE) was lifted into orbit during the mission ‘Thorad SLV-2G Agena D | Poppy 8A,B,C,D’, on board a Thorad SLV-2G Agena D space rocket.

The launch took place on Sept. 30, 1969, 1:40 p.m. from Space Launch Complex 1W.

For more information about the launch, click the button.

Launch to space Thorad SLV-2G Agena D | Poppy 8A,B,C,D
Thorad SLV-2G Agena D | Poppy 8A,B,C,D

Agency: N/A

Status: Launch Successful

Launch date: Sept. 30, 1969, 1:40 p.m. UTC

Rocket: Thorad SLV-2G Agena D

Launch pad: Space Launch Complex 1W

Location: Vandenberg SFB, CA, USA

...

Latest news about this satellite

There are no fresh news available about this satellite. Check back as we update our databases every day.


Newsletter sign-up

Weekly statistics, charts and insights to help you stay on top of the space industry.